RH
67 69 73 76 83 86 86 78 84 68 78 58 52 51 53 54 58 64 78 68 55 61 79 88 86 84 72 65 71 81 86 88 82 82 77 75 74 65 64 66 58 57 50 47
73 70 77 82 78 82 81 78 80 76 78 50 50 56 62 60 56 75 77 58 46 47 72 89 93 92 77 64 60 60 59 59 59 59 56 54 53 54 51 54 59 62 64 57
89 74 77 78 78 80 82 80 74 88 64 49 57 58 56 56 75 79 65 49 45 48 56 63 86 92 88 83 73 73 72 74 74 71 73 72 64 59 63 66 61 61 61 66
93 76 81 50 52 60 68 63 68 58 52 48 49 50 66 72 74 69 55 46 44 48 55 62 64 81 87 89 88 91 89 83 80 77 73 81 78 78 76 55 62 76 88 94
94 96 69 60 83 76 72 65 58 59 53 50 68 73 78 57 53 52 48 49 49 49 55 66 73 82 85 89 94 94 96 100 100 98 95 94 87 86 90 95 100 100 100 98
98 98 90 53 64 67 68 93 61 65 68 64 77 95 86 61 52 52 53 51 54 55 58 61 71 75 82 93 98 100 99 100 100 100 96 97 100 100 100 96 97 98 98 94
97 98 82 57 58 62 84 82 59 56 58 70 88 86 82 65 63 65 68 66 66 67 73 72 74 79 98 100 100 100 100 100 100 99 98 98 99 100 99 99 97 61 59 67
81 96 87 47 59 69 60 47 50 55 64 77 82 89 80 75 72 76 77 78 82 89 91 87 84 88 100 100 100 100 100 99 100 100 100 100 97 94 62 49 44 45 45 45
81 79 52 45 63 56 50 50 54 69 69 78 85 91 91 82 78 77 83 87 89 94 98 94 91 98 100 100 100 99 100 100 100 100 99 99 86 46 42 39 38 41 41 42
69 57 62 57 55 55 51 52 59 64 66 77 81 90 94 81 78 81 84 85 90 92 95 100 99 99 100 100 98 97 99 100 100 97 79 51 44 40 39 40 40 42 39 35
77 65 58 54 53 55 59 60 61 61 64 73 86 91 93 85 82 81 83 85 90 92 99 100 100 100 100 99 96 96 99 98 89 63 43 41 41 39 33 30 28 29 33 41
83 57 56 60 53 60 63 64 59 63 68 80 88 88 90 88 81 85 85 88 93 91 96 100 98 99 99 97 94 93 90 61 45 41 42 43 41 56 62 60 49 42 52 64
73 78 70 67 69 64 64 61 62 68 74 83 90 78 78 88 85 87 90 93 92 80 88 92 94 97 94 88 81 78 58 46 42 42 43 42 48 53 63 67 73 76 75 68
79 78 74 77 82 78 68 69 70 73 79 89 92 75 65 82 89 94 92 84 85 71 80 84 87 87 83 70 55 65 47 41 38 39 41 42 40 34 33 32 31 35 42 58
82 82 87 87 82 71 67 70 69 76 79 88 92 74 74 93 89 85 74 74 79 69 76 76 75 73 65 48 59 67 42 39 38 38 38 34 31 32 32 32 37 44 47 46
88 87 83 86 86 82 68 68 74 78 78 82 90 82 76 82 87 86 80 73 66 62 62 64 63 56 43 45 69 44 40 37 36 36 36 31 32 32 33 38 46 53 53 54
98 93 93 95 91 89 87 82 78 75 76 84 87 80 80 86 89 84 78 74 75 74 55 53 51 43 43 53 54 39 38 39 36 36 31 29 32 34 37 44 51 55 56 60
84 82 83 89 96 90 86 86 80 75 76 74 77 79 79 79 83 86 82 77 74 59 60 45 42 42 44 46 41 38 38 38 37 33 28 31 34 36 40 47 53 59 64 66
86 83 78 80 89 89 84 81 72 68 69 70 74 78 77 75 78 87 89 89 89 97 88 48 42 52 49 41 38 36 35 36 34 29 29 38 48 38 46 53 57 62 68 70
95 86 80 81 89 83 68 68 68 68 69 73 78 80 80 83 86 90 90 94 96 97 94 49 48 68 41 39 36 35 35 36 31 27 32 37 35 40 52 57 61 63 68 73
100 99 87 82 87 90 80 72 73 78 84 82 86 88 89 88 92 94 96 94 95 98 90 58 93 69 40 38 37 35 36 34 27 27 29 36 36 43 47 52 59 66 69 77
98 98 99 95 88 82 87 82 77 86 91 91 91 90 84 85 91 94 89 84 81 85 73 70 84 44 39 35 34 35 35 29 27 27 27 32 34 39 46 55 62 67 69 73
91 88 84 83 88 92 92 92 89 77 86 90 77 70 68 69 72 74 71 71 72 72 59 70 62 39 40 36 36 36 31 26 25 24 25 28 33 40 50 58 63 66 68 70
97 96 92 84 76 73 78 75 76 90 87 64 61 62 61 64 65 65 64 64 64 65 55 64 43 41 41 36 36 33 27 25 23 21 24 28 34 48 55 61 62 63 66 70
94 96 98 92 87 87 80 74 67 64 70 88 92 86 63 58 60 60 57 60 59 57 53 46 43 55 40 38 34 30 25 23 20 20 22 27 43 52 56 60 61 62 66 70
93 93 92 95 92 93 86 76 74 68 66 66 69 76 78 81 80 67 56 56 65 58 48 50 57 65 48 38 32 27 24 22 20 19 23 37 49 54 58 61 64 68 73 74
75 77 82 87 91 99 99 95 83 75 68 66 66 64 68 70 71 81 63 69 69 58 47 47 57 62 56 37 29 25 23 23 22 21 27 42 51 55 59 61 64 70 73 73
Wind_Speed
1 2 2 4 5 8 7 5 6 3 6 6 8 6 8 7 8 6 3 4 5 5 5 10 14 15 15 16 14 9 11 12 14 15 18 22 22 21 22 23 25 28 30 31
2 3 4 4 7 9 9 5 9 9 18 13 13 7 7 8 6 3 2 1 4 4 4 4 7 7 10 15 14 13 17 19 21 23 24 26 27 28 28 28 27 29 30 30
3 3 3 4 7 9 5 5 7 7 10 10 6 7 7 4 1 1 3 3 3 4 3 4 7 5 10 12 11 14 19 19 21 24 27 26 26 29 30 33 34 33 30 26
1 3 1 4 3 5 10 7 10 9 12 12 10 5 1 3 1 2 4 3 3 3 4 6 8 9 10 9 12 12 15 17 18 23 26 24 24 28 29 35 32 29 25 22
2 2 6 1 1 4 3 2 6 7 9 7 3 2 0 3 2 4 4 4 5 5 6 8 8 10 13 14 12 12 11 9 11 21 28 26 29 28 27 29 27 24 21 19
1 1 2 3 0 1 2 1 1 4 4 7 2 2 3 4 4 6 6 8 8 8 11 10 9 11 13 14 12 11 10 12 17 21 28 28 27 27 25 26 25 21 18 15
2 2 6 5 5 2 2 2 5 3 8 7 5 3 4 6 5 7 7 8 10 9 11 8 8 10 12 12 14 13 15 18 20 23 27 27 27 25 24 22 19 16 16 12
3 1 5 3 1 3 3 2 2 5 4 5 1 5 5 6 7 7 7 9 9 10 11 8 8 11 14 14 14 16 19 22 24 25 26 25 24 18 18 17 17 16 14 12
7 5 4 3 4 4 1 3 4 3 3 4 4 5 6 6 7 7 9 10 11 12 11 9 9 12 16 15 17 20 21 21 22 22 20 19 18 15 15 13 13 12 9 7
1 2 6 7 7 7 4 6 2 3 3 2 3 6 6 7 7 7 10 10 13 12 11 10 10 12 17 20 21 22 20 20 20 19 15 12 12 11 11 10 9 8 7 5
4 8 7 5 3 5 3 1 2 3 2 5 4 6 7 6 8 9 11 11 12 12 11 11 14 18 18 20 20 21 19 18 16 15 14 14 12 10 8 7 5 5 6 5
4 4 1 7 4 4 4 3 2 2 3 2 5 7 6 7 10 13 14 14 12 13 15 16 17 18 18 18 19 19 18 16 15 14 13 12 13 14 10 9 7 7 6 5
4 4 5 8 7 3 4 3 1 2 2 3 3 6 9 6 13 15 16 17 17 16 18 20 18 18 18 18 16 16 17 16 14 13 11 11 9 9 11 9 9 7 5 3
4 7 2 4 4 7 5 3 2 1 2 2 5 10 12 10 15 15 15 18 23 20 21 21 20 20 19 17 14 14 14 13 12 11 9 8 7 6 5 4 2 1 2 4
6 5 6 9 6 6 2 2 2 3 2 0 4 9 13 10 10 13 18 21 23 21 22 21 20 19 18 17 15 15 15 14 12 10 8 7 7 5 3 2 1 2 3 3
10 9 9 5 6 5 3 4 4 4 3 2 4 8 12 14 15 17 20 21 21 17 22 22 21 20 19 19 16 16 14 13 12 10 8 7 5 3 1 0 1 3 5 7
7 9 9 9 7 7 8 6 6 5 4 5 7 11 15 14 14 15 17 19 20 22 22 22 22 20 20 19 18 17 16 13 11 9 7 5 3 2 2 1 2 4 6 7
6 8 9 10 9 10 10 7 6 7 6 10 12 13 12 13 10 14 17 20 18 19 17 19 21 20 19 19 18 17 15 13 10 8 7 5 4 3 2 3 4 5 7 8
8 9 9 9 10 8 8 5 6 8 10 13 13 10 12 12 15 17 20 20 17 16 20 18 22 22 20 19 17 16 14 12 10 9 7 5 5 3 4 4 5 7 9 10
8 11 11 10 9 6 3 2 5 8 10 12 12 11 10 12 17 18 19 16 18 16 23 21 24 20 20 18 16 14 13 12 10 9 8 6 6 6 5 5 7 8 10 11
8 9 9 10 8 8 5 1 5 7 9 11 11 10 12 14 16 19 16 11 20 18 24 24 23 22 21 18 16 14 13 12 11 10 9 7 6 6 6 7 8 10 11 11
8 7 9 12 8 6 6 3 1 5 7 8 9 11 12 13 15 15 15 13 20 20 27 29 24 22 21 18 16 15 14 12 11 9 9 9 8 7 7 8 10 11 11 12
10 11 10 9 8 6 6 5 3 1 5 8 10 12 14 14 17 13 6 14 20 22 25 26 23 22 20 17 16 15 14 12 11 9 8 8 7 7 8 9 11 11 12 13
10 11 11 13 11 11 6 10 5 3 3 4 7 10 13 13 12 14 9 15 21 22 24 24 23 22 21 17 17 15 13 12 11 9 8 8 7 8 10 10 11 12 13 14
10 11 11 12 9 7 12 10 7 4 3 4 6 8 11 12 13 16 14 16 21 23 25 25 23 21 20 18 17 15 13 12 11 10 9 9 8 9 10 11 13 14 15 16
11 10 12 12 8 13 13 11 7 7 4 3 5 8 11 12 12 10 16 18 22 23 26 25 24 23 19 18 16 15 13 13 12 11 10 9 9 10 11 12 13 14 16 17
10 10 12 12 12 14 14 13 10 10 7 6 8 8 10 12 12 11 15 18 23 23 26 26 25 23 19 18 17 15 14 13 12 11 11 10 10 11 12 14 15 16 17 18
Wind_Direction
112 130 160 180 175 179 190 175 186 232 223 251 261 272 276 282 300 318 38 38 26 35 19 9 357 3 10 23 23 43 82 98 105 115 122 123 127 124 124 128 127 135 136 135
58 24 216 226 212 197 215 223 254 271 286 272 272 268 271 274 288 340 32 53 56 55 42 11 15 14 33 46 48 66 80 84 96 103 107 110 115 118 121 120 128 128 120 127
295 313 318 292 217 197 186 206 202 215 245 293 280 253 258 267 41 329 141 117 86 66 69 56 62 60 54 56 80 81 86 88 96 101 98 101 113 118 119 120 126 121 123 124
247 355 13 245 177 180 198 238 215 256 270 277 285 281 158 77 131 137 122 118 99 96 92 71 87 76 77 73 70 64 76 99 113 116 115 121 119 117 117 124 124 124 123 120
99 246 291 360 126 142 173 338 186 211 255 277 301 10 58 108 130 97 103 103 101 111 112 96 84 77 80 68 68 70 64 74 96 115 115 117 118 122 123 122 119 117 115 112
59 73 248 239 183 293 214 351 322 189 302 304 177 293 258 167 117 100 106 121 118 114 105 97 83 90 80 79 77 78 92 96 117 118 119 118 121 124 121 119 117 118 118 114
207 246 285 252 293 198 93 228 309 326 304 287 218 211 137 131 100 111 119 119 117 113 99 106 106 109 93 94 90 106 113 116 120 119 122 124 123 123 120 115 113 115 113 125
184 197 288 190 258 163 194 288 259 291 282 299 129 133 135 127 123 127 124 116 115 105 97 106 109 118 108 96 119 124 124 124 123 123 121 121 118 115 114 123 131 133 128 118
178 212 239 232 234 258 213 262 282 272 279 293 167 175 150 146 144 144 137 124 129 121 106 104 112 126 119 121 131 131 128 121 123 122 122 120 120 121 127 130 123 122 123 119
319 267 240 260 264 255 257 246 238 244 278 256 222 158 152 151 150 141 142 138 130 119 113 114 120 129 132 138 142 139 132 129 128 123 121 119 119 122 124 122 124 131 130 105
256 288 292 244 249 270 267 219 274 283 249 256 193 166 154 161 155 150 143 143 141 131 126 128 138 141 146 150 153 143 136 134 130 124 119 115 106 103 107 100 104 118 107 99
232 253 251 274 282 308 302 290 287 270 281 259 190 164 153 157 154 148 143 145 141 137 135 140 148 151 157 160 159 149 143 139 134 129 126 124 120 105 85 86 85 87 81 56
269 333 255 276 284 329 302 341 347 289 288 252 180 161 150 148 153 153 147 149 159 154 151 156 160 161 163 163 165 159 147 143 141 139 138 136 134 130 124 102 102 97 76 48
18 345 344 30 324 319 324 9 19 23 357 288 180 166 151 143 155 155 158 165 166 161 161 166 167 169 170 168 165 158 153 152 153 155 159 158 160 162 159 159 156 45 4 359
356 354 257 276 289 284 303 304 304 291 299 251 175 154 148 147 154 147 155 169 169 168 172 173 174 178 178 176 173 168 166 164 164 160 158 158 153 145 130 102 61 349 333 335
317 311 291 305 299 295 271 279 257 253 220 209 180 165 166 154 146 152 164 169 157 169 179 179 185 182 180 180 179 172 170 169 166 162 159 156 152 145 142 156 301 315 330 338
322 325 331 320 314 299 275 258 239 233 200 196 189 160 145 138 141 149 160 171 179 181 185 187 185 180 181 184 182 176 170 166 168 165 166 170 179 197 211 262 294 307 319 324
286 280 281 269 275 283 283 254 232 216 198 197 173 160 147 156 164 160 158 169 174 175 185 193 183 176 186 186 183 177 171 170 172 178 182 184 197 212 244 268 274 291 306 318
312 306 302 290 272 268 272 254 202 202 184 174 163 164 165 163 160 160 163 163 163 168 184 188 180 182 187 183 182 177 175 176 180 184 187 190 196 230 239 260 278 295 306 316
333 331 325 328 346 344 341 37 154 153 170 170 161 150 153 159 164 163 168 174 184 188 180 183 180 181 186 181 183 181 183 186 188 190 195 206 224 231 242 263 286 298 305 310
338 336 347 351 348 8 20 101 154 158 168 178 168 169 167 170 174 170 163 174 194 192 182 181 189 188 185 183 183 185 188 191 196 202 208 216 223 234 255 273 287 301 308 310
348 351 350 348 348 359 13 19 178 162 175 182 186 185 172 170 175 178 192 190 188 186 185 188 192 190 186 190 188 191 194 198 202 208 214 223 233 248 268 283 297 305 308 310
352 351 351 351 348 349 6 14 1 207 197 197 200 195 190 188 184 165 177 196 189 187 192 191 189 189 190 193 193 195 199 203 208 214 221 229 245 263 280 292 299 304 308 309
352 355 353 3 25 28 15 358 339 300 249 223 213 211 196 182 194 202 206 193 189 191 191 189 189 190 197 195 196 198 203 207 214 220 229 239 254 271 286 295 300 304 305 307
348 348 1 9 13 4 2 357 352 350 306 257 231 214 210 212 211 204 203 193 189 192 187 189 190 188 200 198 199 202 207 211 218 228 235 245 259 275 289 296 302 305 306 309
357 355 350 2 12 9 0 355 340 333 313 276 253 234 221 214 212 210 201 196 188 192 189 185 186 194 200 200 202 206 210 213 222 233 239 249 263 276 288 296 301 304 306 308
358 359 360 355 1 355 354 349 328 319 312 279 270 259 233 219 208 209 206 194 195 194 193 192 194 200 203 202 206 211 216 221 229 239 249 261 271 282 290 296 300 305 308 309